Wind_Gust
6 6 6 6 4 4 4 3 3 2 2 5 5 7 7 5 4 4 4 5 5 6 6 7 7 7 11 10 9 8 7 7 7 7 6 7 8 9 9 8 7 13 14 14 14 13 13 13 13 13 13 12 10 10 10 9 9 9 9 9 10 10 10 10 10 10 10 10 10 8 8 9 9 9 9 9 9 9 8 8 12 15 12 11 11
7 5 8 6 6 4 4 4 4 3 2 5 5 6 6 4 3 4 4 3 4 4 6 9 9 8 8 11 9 8 8 8 7 8 7 8 8 8 9 6 5 13 12 12 13 13 12 12 13 13 13 12 12 11 10 9 8 9 9 9 9 9 9 9 9 9 9 10 9 9 10 9 9 8 8 8 9 8 8 7 10 12 10 10 9
8 7 5 7 5 5 4 4 4 2 3 4 5 6 6 5 3 4 5 5 7 6 8 10 9 10 8 10 8 8 8 7 7 7 8 7 6 5 5 7 7 12 11 11 10 10 10 11 13 13 13 12 12 11 9 8 7 8 8 8 7 7 8 8 8 8 8 8 8 7 8 8 8 8 8 7 8 9 8 7 8 8 9 9 8
8 7 7 6 6 6 5 5 4 4 4 4 7 6 6 4 4 4 5 5 7 7 8 10 10 9 8 9 7 9 9 8 8 7 7 6 6 6 7 6 9 10 11 12 9 8 8 12 12 11 11 11 12 10 8 8 7 7 7 7 7 6 7 8 8 7 7 7 7 8 7 7 7 7 7 7 6 7 7 6 6 6 6 8 8
8 8 8 7 6 6 5 4 5 5 5 6 7 6 6 5 5 5 5 7 7 7 10 10 10 8 8 7 7 8 8 8 7 8 7 6 7 7 7 6 6 10 11 10 10 8 7 7 13 13 11 10 9 8 7 7 7 7 7 7 7 6 7 7 7 7 6 7 6 6 7 7 7 7 6 5 5 6 5 5 6 7 7 7 8
7 5 6 7 6 6 5 4 4 5 6 8 8 6 6 5 3 4 8 7 7 6 9 11 8 6 7 5 7 7 8 8 7 8 7 7 7 7 7 6 7 7 8 10 8 8 8 6 10 11 10 9 8 9 9 9 8 8 8 8 7 7 7 6 6 6 6 6 6 5 6 7 6 6 5 4 4 4 3 4 5 6 5 6 6
4 6 5 6 6 4 4 3 5 5 7 6 8 5 5 6 5 7 7 8 7 7 7 9 8 8 6 6 8 8 8 7 6 7 7 6 7 7 6 7 7 7 8 9 10 13 11 10 11 8 7 7 7 7 6 5 5 8 7 8 7 7 7 8 8 7 7 7 7 7 6 7 6 5 6 5 4 2 3 3 3 3 4 4 3
4 5 6 5 5 5 5 6 7 6 6 5 7 7 6 6 3 4 11 7 8 8 6 9 8 8 6 8 7 7 8 6 6 6 6 7 7 6 6 6 7 8 9 9 9 10 13 12 13 15 16 16 17 15 15 15 13 9 6 7 8 8 8 9 8 9 8 8 8 7 8 8 8 7 6 6 6 5 4 3 3 3 2 3 4
4 4 7 6 4 5 4 6 6 8 7 7 6 6 6 8 5 3 3 9 8 9 8 8 10 8 9 9 8 7 8 6 6 6 7 7 5 5 6 5 7 10 8 8 8 8 12 14 16 15 14 15 14 12 10 9 9 8 9 6 7 11 12 8 9 9 8 8 9 9 8 9 8 8 8 8 7 7 7 6 5 4 3 3 3
5 5 6 5 5 6 5 6 6 7 7 6 7 5 6 6 8 5 5 8 9 10 10 9 10 11 10 10 9 9 8 7 5 7 7 7 6 5 5 6 8 7 8 8 8 8 9 13 18 18 18 14 13 12 11 11 8 8 8 10 7 9 11 14 9 9 9 8 8 8 7 6 9 8 7 9 9 9 9 9 8 8 6 5 4
6 7 6 8 6 5 6 4 5 6 7 7 6 6 5 5 7 7 7 5 8 7 10 10 11 12 13 11 9 9 8 6 5 6 7 7 9 8 7 7 7 6 7 7 7 8 10 9 10 10 13 16 16 16 15 16 15 11 6 7 9 6 8 8 9 7 5 5 6 8 8 5 8 9 9 10 11 10 11 10 10 10 9 8 6
9 10 8 8 7 6 5 4 5 6 7 7 6 7 7 8 7 9 10 8 7 8 10 14 13 12 12 11 10 9 9 7 7 7 7 6 7 7 9 7 8 8 8 8 8 10 10 10 11 10 9 13 16 15 15 15 14 13 12 11 10 8 6 6 7 6 5 6 5 8 6 7 8 10 12 12 11 11 12 12 12 11 11 10 9
8 8 8 7 7 7 7 5 5 6 7 8 7 7 7 7 8 6 10 11 6 4 5 9 16 13 10 11 11 8 9 9 9 9 10 9 7 8 8 9 8 10 8 9 10 12 10 10 10 9 9 8 10 13 15 15 15 13 15 12 10 10 9 8 9 6 6 6 7 8 6 9 6 12 15 14 12 14 14 13 12 12 11 11 11
8 7 7 8 7 7 6 7 7 6 5 6 5 7 9 9 9 10 5 7 9 4 4 5 5 10 13 7 8 9 8 10 10 12 11 10 8 9 8 8 10 11 12 9 10 11 10 8 9 10 10 9 8 8 9 10 11 15 15 17 15 11 13 12 11 12 13 14 14 16 15 15 16 16 17 13 13 17 19 16 13 12 12 12 11
7 7 8 7 7 8 7 6 5 6 6 6 6 7 9 9 7 11 10 5 6 2 3 4 8 6 6 9 5 6 5 6 7 10 9 9 8 9 8 10 12 12 10 7 9 11 9 9 10 10 9 9 8 9 9 9 11 15 16 16 18 17 16 17 17 17 17 17 18 19 19 18 17 18 18 16 14 10 8 12 17 14 13 13 12
6 6 5 6 7 8 7 7 7 5 7 7 6 7 9 8 8 6 8 10 7 5 4 2 5 14 8 4 6 5 5 2 7 7 6 8 8 7 4 9 9 10 9 9 10 10 10 10 12 10 9 9 9 8 8 8 13 13 15 15 16 17 18 18 18 19 19 20 20 19 18 18 20 20 20 21 20 15 9 7 9 15 14 15 13
5 5 6 7 6 7 7 7 7 6 6 7 7 7 6 7 11 11 9 12 7 6 5 3 5 3 10 12 7 4 7 5 6 6 6 7 8 7 6 7 7 8 11 12 9 9 11 12 9 9 8 9 8 7 7 9 10 10 12 15 17 18 19 19 20 21 21 21 20 19 19 20 21 20 21 21 22 21 20 16 11 11 11 17 16
5 5 6 6 7 7 6 7 6 6 6 7 7 8 7 8 9 11 9 4 12 7 7 4 2 3 4 2 9 9 13 8 6 7 4 6 5 7 7 7 5 9 10 11 11 11 11 10 8 9 8 9 8 8 8 9 9 9 10 15 17 17 18 18 20 20 21 21 20 20 21 21 21 20 20 21 22 22 23 22 19 16 17 14 21
5 5 5 5 6 7 6 6 7 6 5 7 8 9 9 7 8 9 10 10 8 9 8 8 2 4 3 2 2 3 12 18 9 9 8 4 7 7 9 8 7 10 12 11 11 12 8 8 8 8 8 8 8 8 9 10 11 12 15 16 15 15 15 16 19 20 21 20 21 20 21 21 21 20 21 21 21 23 22 24 25 25 22 21 11
5 5 5 5 5 6 6 6 6 5 6 7 8 7 7 5 7 7 9 11 10 12 10 6 15 10 5 5 5 7 5 5 6 10 13 13 7 6 7 9 11 10 10 10 10 12 11 7 9 9 8 7 7 8 8 8 7 8 10 13 13 14 11 14 16 16 17 20 20 20 20 20 20 20 20 21 22 21 22 23 25 25 26 25 23
2 3 4 5 5 6 5 6 6 6 5 5 4 7 10 10 7 8 10 8 9 7 11 12 8 9 8 5 8 6 7 6 8 5 11 13 7 6 9 9 13 10 9 8 7 7 9 9 8 8 7 6 6 6 7 7 7 7 8 11 12 12 13 13 14 15 15 15 19 20 20 19 20 20 20 21 21 22 22 22 22 23 24 25 25
1 2 2 3 3 5 6 7 7 7 7 7 5 6 7 9 10 9 8 9 5 9 12 10 9 5 6 10 8 6 7 7 5 7 9 4 17 15 8 12 12 6 7 8 7 7 8 8 8 6 6 6 4 5 5 6 5 5 7 11 11 11 12 12 12 13 13 12 15 18 19 19 20 20 20 21 21 22 22 23 23 23 23 23 23
5 4 3 2 3 3 6 7 6 6 6 7 8 9 9 9 9 7 9 10 9 8 5 5 7 6 5 9 13 15 12 11 12 8 8 10 13 10 8 7 10 12 5 6 8 7 6 5 8 6 5 4 3 4 4 3 6 6 9 8 9 9 11 10 10 11 12 12 13 16 18 19 20 20 20 20 21 21 23 23 24 24 24 23 23
6 7 5 4 5 3 4 6 8 6 6 6 6 7 7 7 8 9 9 8 8 10 9 9 8 8 5 7 7 5 5 9 11 10 12 15 18 14 11 9 10 8 7 8 7 6 4 3 2 5 5 4 3 3 2 3 3 8 6 7 7 7 7 9 8 10 11 11 12 15 18 19 19 19 20 20 21 22 22 23 23 24 24 24 24
5 8 4 4 6 6 5 7 6 4 6 6 4 5 7 7 8 7 8 9 10 10 11 10 11 12 10 5 8 7 8 8 10 11 9 13 18 18 5 5 11 10 5 5 7 2 3 2 2 1 3 4 4 3 2 3 2 4 6 5 6 5 6 8 10 9 9 10 11 13 15 17 18 19 19 19 19 20 20 21 18 16 17 19 22
7 7 6 4 5 5 5 4 4 3 4 5 6 5 5 8 7 8 8 7 8 8 8 6 5 4 5 8 6 8 8 8 11 13 16 18 15 17 13 9 9 10 6 4 2 6 2 2 2 2 1 2 4 4 3 3 2 5 5 3 3 5 6 7 8 8 8 8 9 10 12 13 15 16 16 16 15 15 15 13 14 14 14 15 16
9 7 5 5 4 4 4 6 4 4 4 5 5 5 5 5 4 4 5 7 8 9 9 10 9 7 5 7 8 7 10 9 11 11 13 17 20 18 21 21 10 6 4 4 2 3 5 3 4 2 4 4 4 5 4 4 5 5 5 2 2 5 6 6 7 8 7 6 7 8 8 9 9 10 10 10 10 10 12 13 13 12 13 13 15
5 7 4 6 5 5 5 6 6 5 4 6 5 6 6 7 4 4 5 4 9 8 10 10 10 9 8 5 5 6 9 9 8 10 9 11 15 13 16 20 23 13 4 6 3 2 3 5 2 5 6 6 6 5 5 4 3 4 5 2 2 3 5 5 5 6 6 6 6 7 7 7 8 8 8 9 10 10 11 12 11 11 12 13 15
7 6 8 5 6 5 6 6 6 5 5 5 6 5 5 5 6 4 4 4 7 9 9 9 7 8 8 9 8 8 8 7 8 10 10 10 10 11 15 21 19 21 11 9 8 8 6 5 7 8 8 7 7 4 4 5 5 3 3 2 1 1 3 3 4 4 4 5 6 6 6 6 6 6 8 9 9 9 9 8 8 9 10 12 12
7 5 7 6 6 6 7 5 5 5 6 5 6 6 6 6 4 4 3 5 8 5 5 8 8 7 7 6 6 8 6 10 10 10 10 12 12 11 10 10 17 22 15 15 15 10 8 5 5 7 5 8 7 5 5 6 7 5 3 3 2 1 2 1 1 2 3 3 4 5 5 5 4 6 6 5 5 6 5 5 6 7 8 9 10
6 6 6 6 5 6 6 5 4 6 5 6 5 6 6 7 3 6 3 6 10 8 5 8 7 9 9 8 6 8 7 10 11 10 9 11 11 11 9 10 5 7 17 12 12 11 8 12 10 6 9 7 7 5 5 5 6 6 4 2 3 4 4 3 3 3 5 5 4 5 5 5 4 5 5 6 7 5 5 5 3 5 7 7 6
5 4 6 5 5 6 5 5 4 4 6 4 5 5 5 5 5 6 3 6 9 8 5 4 9 9 10 9 8 11 7 9 10 10 11 8 10 11 11 10 7 8 5 13 12 12 8 8 8 6 7 9 7 7 6 5 5 7 4 2 2 3 3 2 4 4 6 7 6 5 7 6 6 6 7 7 6 7 4 4 3 3 3 3 3
6 6 5 5 5 6 5 4 4 4 5 4 3 5 6 4 4 5 3 5 8 4 7 6 5 8 10 10 7 6 8 10 10 9 9 9 7 7 6 9 10 7 10 7 10 5 4 3 5 9 6 7 7 7 6 5 3 2 4 3 3 3 3 3 2 4 7 8 8 6 6 7 7 6 6 6 7 7 7 7 5 4 3 3 2
7 7 6 4 5 6 6 3 2 3 3 4 3 5 6 5 3 3 5 4 6 4 5 6 5 6 9 11 7 6 5 10 9 8 8 9 8 9 7 10 11 10 8 9 5 8 11 3 4 1 7 4 8 4 9 8 3 4 5 3 2 3 3 2 2 4 6 7 8 7 7 8 7 6 6 8 8 8 7 8 8 6 5 5 4
5 9 7 6 6 6 6 4 3 3 2 3 2 5 5 6 5 3 3 4 5 5 5 5 5 5 8 9 6 6 5 7 5 5 5 7 7 12 12 9 12 11 9 7 9 5 9 8 5 6 7 7 10 9 4 2 4 4 5 4 3 2 3 2 2 4 4 5 6 6 5 5 4 5 7 9 10 11 9 8 8 9 7 6 6
7 4 6 7 6 6 6 4 3 2 2 1 2 2 5 5 5 4 2 3 2 3 5 5 5 6 8 8 6 6 6 9 6 6 4 5 9 10 11 9 11 13 9 6 6 9 7 9 6 12 9 9 13 4 7 3 3 1 2 1 2 2 1 2 1 3 8 10 7 4 3 5 7 9 10 11 11 11 12 10 10 8 8 7 7
4 5 4 4 6 5 7 6 4 3 4 4 4 2 1 2 4 5 3 2 3 3 4 5 6 6 7 9 7 6 7 11 6 7 7 6 6 8 8 8 9 9 8 7 6 6 10 11 9 7 4 6 4 5 8 11 5 7 6 7 4 5 7 5 5 9 6 6 5 5 8 9 10 12 12 11 11 12 13 13 12 11 7 6 7
3 4 6 3 6 6 5 5 5 5 3 3 5 5 5 3 3 3 3 3 3 3 3 4 4 4 7 7 6 7 8 11 8 7 7 8 7 8 9 8 8 7 8 6 7 7 10 12 11 8 2 7 4 3 5 10 13 9 8 6 8 9 8 9 8 7 5 5 6 9 9 10 12 14 16 15 15 15 15 14 14 13 12 8 6
6 5 3 4 3 5 5 4 4 5 4 4 4 4 4 5 5 4 3 3 2 3 4 5 4 3 5 7 7 7 8 9 10 10 9 7 9 8 9 10 9 9 9 8 8 9 10 10 6 5 6 2 4 6 2 4 7 8 12 5 5 6 8 6 6 4 5 7 6 8 10 10 12 12 14 18 18 18 16 17 18 18 17 15 11
6 6 8 7 6 5 6 7 6 5 5 5 4 3 3 5 5 5 6 5 5 4 4 4 4 5 5 6 6 6 8 9 9 8 9 10 6 7 6 8 10 10 9 8 6 9 9 8 10 9 4 5 3 3 5 6 7 5 4 8 10 4 5 7 6 7 9 8 12 12 11 14 12 13 13 14 18 17 18 15 18 19 19 18 17
2 3 3 4 5 5 4 4 3 4 5 7 7 6 5 4 4 6 6 6 7 6 4 2 1 1 2 3 3 4 5 8 8 10 9 9 12 9 5 7 8 9 8 7 9 9 8 9 6 3 6 4 6 10 8 9 12 14 7 6 6 2 2 7 4 8 8 7 7 9 13 11 10 12 10 14 15 13 15 14 12 16 18 17 18
7 3 5 4 4 4 6 5 3 4 6 5 7 10 8 8 8 7 6 5 6 6 5 3 2 2 3 3 3 5 4 7 9 9 8 8 8 12 14 10 10 10 11 10 9 10 10 11 11 10 8 10 9 10 10 5 5 5 10 8 8 2 4 6 3 7 8 8 6 11 11 11 7 9 12 13 9 11 10 12 12 13 14 16 16
8 8 5 5 2 5 5 6 7 7 7 8 9 10 12 13 10 8 8 7 5 6 7 7 8 6 4 2 2 2 5 5 6 8 9 10 9 9 12 13 12 16 12 10 9 10 12 11 8 7 10 10 8 6 7 11 6 9 9 8 10 6 6 6 5 7 5 6 5 5 10 10 7 9 7 10 8 7 9 10 12 14 13 13 14
11 7 9 5 5 2 4 5 6 7 9 9 12 10 11 12 11 11 9 9 8 7 7 8 8 7 6 5 3 2 3 6 7 7 7 7 7 9 11 11 10 9 9 13 11 8 8 9 7 10 10 12 11 10 9 9 11 8 6 8 5 8 7 6 4 5 7 5 3 5 4 8 4 7 8 7 5 4 6 9 12 12 12 12 12
7 9 8 7 5 6 2 2 6 7 8 10 14 13 13 13 13 10 9 9 11 10 9 9 9 9 7 7 9 7 5 6 7 6 8 7 4 3 4 5 6 8 9 9 9 13 13 11 12 10 14 11 12 11 12 15 11 14 7 7 5 6 7 11 5 2 6 4 5 4 3 5 4 4 8 9 7 5 6 7 11 11 11 11 10
9 8 7 8 8 7 6 4 5 4 7 6 10 14 15 15 14 10 7 8 10 11 12 11 11 12 12 14 12 9 6 5 7 7 7 7 7 5 5 5 5 2 3 7 8 10 13 14 14 15 11 11 17 12 10 13 16 15 13 9 7 10 9 9 5 6 2 3 2 4 4 5 6 5 6 8 6 6 5 5 8 9 9 9 9
10 10 10 9 9 9 9 6 5 8 7 5 7 8 10 13 15 12 8 6 7 8 10 9 10 13 14 12 12 14 12 10 10 11 11 11 9 9 7 6 5 3 3 2 2 3 6 5 12 12 12 7 7 13 13 9 10 12 13 13 13 10 12 7 7 2 3 5 3 5 5 5 4 7 6 7 7 8 4 5 7 8 8 8 8
10 9 10 8 9 10 9 9 9 8 8 8 7 7 8 7 5 7 7 9 10 11 10 9 8 11 8 10 10 10 8 11 11 15 13 13 11 11 10 7 6 3 2 3 3 5 4 9 9 14 14 13 10 15 13 13 14 13 14 15 13 12 14 8 4 4 3 5 3 5 5 4 3 3 7 7 4 7 6 5 7 9 10 11 11
12 12 10 8 8 8 9 8 8 10 10 6 6 9 8 7 5 6 6 7 7 9 11 9 12 8 7 7 7 9 9 11 12 15 14 11 9 10 10 9 7 4 5 4 7 6 3 8 10 12 12 13 13 14 13 15 16 15 16 15 11 11 11 5 2 3 3 3 4 2 4 4 5 4 7 7 5 6 6 7 7 7 10 11 12
13 12 10 11 9 9 10 11 10 9 11 12 8 7 11 10 9 9 9 9 7 8 8 8 10 11 10 13 12 12 13 14 12 14 15 18 16 13 13 11 10 9 7 2 6 8 10 13 15 14 12 11 13 14 14 14 16 13 16 15 13 12 10 9 7 6 5 3 4 3 4 5 5 3 4 9 7 8 7 8 6 8 8 8 11
11 11 12 12 12 12 11 10 11 12 11 12 15 14 9 13 12 11 9 9 9 10 9 10 7 8 11 16 15 13 12 12 11 14 17 16 19 16 14 12 13 15 14 11 13 13 11 14 14 15 14 12 10 8 9 11 10 5 7 14 13 13 11 7 7 3 5 5 7 3 6 6 3 4 4 14 10 11 5 5 7 9 9 8 9
Wind_Speed
4 3 3 3 2 2 2 2 2 1 1 2 3 4 3 2 1 2 3 3 2 3 4 4 4 4 6 6 5 5 5 4 4 4 3 4 5 6 6 4 6 10 11 11 11 10 9 10 10 9 9 9 8 8 7 7 6 6 6 7 7 7 7 7 7 7 7 8 7 6 6 7 7 7 7 7 7 7 6 6 10 10 8 8 8
4 3 4 3 2 1 2 1 2 1 1 2 2 3 3 1 1 2 3 2 3 3 4 5 5 4 5 6 5 5 5 5 4 4 3 4 4 5 7 4 4 9 9 10 10 9 9 9 9 9 9 9 9 8 7 6 6 6 6 6 6 6 6 6 6 6 7 7 6 7 7 7 7 6 6 6 7 6 6 5 8 8 7 7 7
5 4 3 3 2 2 2 1 1 0 2 2 2 3 3 2 1 2 2 3 3 3 5 6 4 4 4 6 5 5 5 4 4 4 4 4 3 3 3 6 6 9 8 9 8 8 8 8 9 9 9 9 9 8 6 5 5 5 5 6 5 5 6 6 6 6 6 6 5 5 6 6 6 6 6 6 6 6 5 5 6 6 6 6 5
4 4 4 4 3 3 2 1 1 1 2 2 3 3 3 2 2 2 3 2 3 4 5 5 5 4 4 5 4 5 5 5 5 4 4 4 4 4 4 4 6 7 8 9 7 6 6 9 8 8 8 8 8 7 6 5 4 4 4 4 4 4 5 5 5 5 5 5 5 5 5 5 5 4 4 5 4 5 5 5 5 4 4 6 6
4 4 4 4 4 3 2 2 2 2 2 3 4 2 3 3 3 2 3 4 3 5 5 5 5 4 4 4 4 5 5 5 4 4 4 3 4 4 5 4 4 6 8 8 8 6 5 5 10 8 7 7 6 5 4 4 4 4 4 4 3 3 4 4 5 5 4 4 4 4 5 5 4 4 3 3 3 4 4 4 5 5 5 5 5
4 3 3 3 3 3 3 2 2 2 3 4 3 3 3 3 1 3 4 3 4 4 5 5 4 3 4 3 4 4 4 5 4 4 4 4 4 4 5 4 4 4 4 6 6 6 6 5 8 8 7 6 6 6 5 4 4 3 3 3 3 3 3 4 4 4 4 4 4 3 4 4 4 4 3 2 2 3 2 2 3 4 3 4 4
2 4 3 4 3 2 2 2 2 2 3 2 3 2 3 3 2 4 4 4 4 4 4 4 4 4 3 4 4 4 4 4 3 3 3 3 4 4 4 4 4 4 4 5 7 10 9 9 9 6 5 4 3 5 4 2 3 5 3 4 5 4 4 5 5 5 5 5 4 4 4 4 4 3 4 3 2 1 1 1 0 2 3 2 2
2 3 3 2 3 2 2 2 3 2 3 3 3 3 3 3 1 2 6 4 4 4 3 5 4 5 4 4 4 4 4 3 3 3 3 4 4 4 4 4 4 4 5 5 5 7 11 11 11 12 13 12 12 11 10 10 9 6 2 3 5 5 5 5 5 4 4 5 5 5 6 6 6 5 4 4 3 3 2 1 0 1 0 2 2
2 3 4 4 3 2 2 3 3 4 3 3 2 2 3 4 2 1 2 4 4 5 4 5 5 5 5 5 4 4 4 3 3 3 4 4 3 3 3 3 4 6 5 5 4 5 9 12 13 12 12 11 11 9 7 6 6 3 2 3 3 6 9 6 6 6 5 6 5 4 4 6 5 5 6 5 5 5 5 4 3 2 2 2 1
2 3 2 1 3 3 2 2 3 4 3 3 2 2 2 1 3 2 3 4 4 5 6 5 5 6 6 6 5 4 4 4 3 4 4 4 4 3 3 3 4 4 5 4 4 5 5 10 15 15 14 11 9 8 8 8 3 4 3 5 4 5 7 10 6 7 6 6 5 4 4 3 5 5 4 6 6 6 6 6 5 5 4 3 3
3 4 2 4 4 3 3 2 2 3 4 4 3 3 2 1 3 4 4 3 4 4 5 5 6 6 7 6 5 5 4 3 3 3 2 4 5 4 4 4 4 4 4 4 4 5 6 5 5 5 7 12 10 11 11 11 9 5 3 2 5 1 5 5 6 5 3 2 3 5 6 4 6 6 6 6 7 7 7 7 7 7 6 5 4
5 5 5 4 4 4 3 2 3 3 4 4 3 4 4 4 3 5 6 5 4 4 5 7 7 7 7 6 5 5 5 4 4 4 3 3 3 4 4 4 4 4 4 3 5 6 6 6 5 5 5 9 12 11 11 11 11 10 9 8 6 4 1 2 2 3 2 1 1 3 4 5 6 6 8 8 8 8 8 8 8 7 7 7 6
5 5 5 4 4 4 4 3 3 3 4 4 4 4 4 3 4 3 6 6 3 3 3 4 8 6 6 6 6 5 5 5 5 5 5 3 3 2 4 4 4 5 3 4 6 5 4 6 5 5 5 5 6 10 11 11 11 10 11 7 3 4 3 3 4 3 4 4 5 6 4 7 2 7 10 11 10 10 10 10 9 8 7 7 7
4 3 3 4 4 4 4 4 4 4 3 2 2 3 5 4 4 5 2 4 3 3 2 2 3 3 5 3 5 5 5 6 6 6 5 4 4 3 1 5 6 6 3 5 5 5 5 4 5 5 5 5 5 4 5 6 7 12 12 13 9 8 9 8 8 9 10 10 11 13 12 12 13 13 14 10 7 9 12 13 10 9 8 8 9
4 4 4 3 4 4 4 4 3 4 4 3 3 4 5 4 3 6 5 3 2 0 1 2 3 3 3 5 1 2 2 4 4 6 5 5 3 3 2 6 7 6 2 3 5 4 5 5 6 6 5 5 4 4 4 5 7 12 12 12 13 11 10 11 12 12 12 13 14 14 15 14 14 15 15 13 11 8 6 5 11 11 10 11 9
4 4 3 4 4 5 4 4 4 3 5 4 3 4 5 4 3 3 5 5 1 2 1 1 2 6 3 2 2 1 1 1 4 3 3 4 3 3 2 5 6 3 2 5 6 5 5 5 6 6 5 5 5 5 5 4 8 10 12 12 13 13 12 12 13 14 14 15 15 14 14 15 15 16 16 16 16 12 8 5 7 8 11 12 11
3 3 3 4 3 4 4 4 4 4 4 4 4 4 4 5 6 5 5 6 4 2 2 1 2 1 5 4 3 0 2 1 3 3 3 3 5 4 3 4 4 3 4 7 5 5 6 6 5 5 5 5 5 4 4 5 6 6 8 12 13 14 14 14 15 15 16 15 15 15 15 15 16 16 16 17 17 17 16 13 10 9 4 13 12
3 3 4 4 4 4 3 4 4 4 4 4 4 4 4 5 5 5 4 3 6 4 2 1 1 0 2 1 3 2 5 3 2 1 2 4 3 4 5 4 3 5 5 6 6 5 5 5 5 5 5 5 5 4 5 5 5 5 6 9 14 13 14 14 15 14 15 15 15 15 16 16 16 16 16 16 17 17 18 18 16 14 14 6 14
3 3 3 3 4 3 4 4 4 3 3 4 5 5 5 4 5 5 5 4 3 4 4 3 0 1 1 0 1 2 7 8 3 3 3 2 4 4 5 5 5 6 5 5 5 6 4 4 5 5 5 5 5 5 5 6 7 8 11 12 12 12 13 13 14 14 15 14 15 15 15 16 16 16 16 17 17 17 17 18 19 19 18 17 8
3 3 3 3 3 3 3 3 4 3 3 4 5 4 4 3 4 5 5 5 5 6 5 3 7 2 2 2 3 4 3 3 4 4 5 5 3 4 5 6 6 5 4 5 5 5 5 4 4 5 4 4 4 5 5 5 4 5 6 10 10 11 9 11 13 13 13 15 14 14 15 15 15 15 16 17 17 17 17 17 17 18 18 19 18
2 2 2 3 3 4 3 4 4 4 3 3 3 4 6 5 4 5 6 5 5 4 5 6 5 4 4 2 4 4 4 3 5 3 4 5 3 3 4 5 7 5 5 5 4 4 4 4 4 4 4 3 3 4 4 5 5 4 6 9 9 9 10 10 11 12 12 12 15 15 15 14 15 15 16 16 16 17 17 17 17 16 17 17 19
0 1 2 2 2 2 4 5 5 5 4 5 3 4 4 5 5 5 5 6 3 5 7 6 5 3 4 5 4 2 4 3 3 4 5 3 6 6 4 6 5 3 4 5 4 3 3 4 4 3 3 4 3 3 3 4 3 3 5 8 8 8 8 8 10 10 11 11 13 14 14 14 15 15 15 16 16 17 16 17 17 17 17 17 17
2 2 1 1 2 2 4 4 4 3 4 4 5 6 5 5 5 4 5 6 5 5 3 4 4 4 4 6 7 8 6 5 7 4 4 5 7 5 4 3 6 6 3 3 4 4 3 3 3 3 3 3 2 3 3 2 3 4 7 7 7 7 8 8 9 10 10 9 11 13 14 14 15 15 15 15 16 16 16 17 17 17 17 17 16
3 3 2 1 2 2 2 3 3 3 3 4 3 4 5 4 5 5 5 4 4 5 5 5 5 5 3 5 5 3 3 5 6 6 7 8 10 7 6 3 5 3 2 3 4 4 2 2 1 1 1 2 1 1 1 2 2 5 4 5 5 6 6 6 7 8 9 9 10 12 14 14 14 15 15 15 15 16 16 16 16 16 17 17 18
3 5 3 3 3 3 3 5 3 3 3 2 2 3 4 4 5 4 5 6 6 6 6 6 6 6 6 3 5 4 4 4 6 6 6 7 10 9 2 3 5 3 1 2 1 1 1 1 1 1 1 1 1 2 1 2 1 3 4 4 4 4 5 6 7 7 8 9 9 10 12 13 13 14 14 13 14 14 14 14 13 13 13 15 16
5 4 4 2 2 2 3 3 2 2 3 3 3 3 3 5 4 5 5 4 5 5 5 4 4 3 3 5 4 5 4 5 6 7 9 9 8 10 7 4 5 5 1 1 0 2 0 0 1 1 1 1 2 2 1 1 1 3 3 2 3 4 5 6 7 6 6 7 7 8 9 10 11 11 12 11 11 11 10 10 11 11 11 12 13
6 4 3 4 3 3 3 3 3 3 3 3 3 3 3 3 2 3 3 4 5 5 4 5 5 4 4 5 5 5 5 5 6 6 7 9 10 9 11 11 4 3 1 1 0 0 2 1 2 1 2 2 2 2 2 2 3 3 3 2 2 5 6 6 6 6 5 5 5 6 7 7 7 8 8 8 8 8 9 10 10 10 11 11 12
3 4 3 4 4 3 2 3 3 2 2 3 3 4 4 4 3 3 3 2 5 5 5 5 5 5 5 3 3 4 5 5 5 6 5 6 8 7 9 11 12 6 1 2 1 0 2 2 1 3 4 3 3 2 2 2 2 4 4 1 1 2 4 4 4 5 5 5 5 5 6 6 7 7 7 7 8 8 8 9 8 9 10 10 11
4 3 4 3 4 3 4 3 4 3 2 2 3 3 3 3 3 3 3 3 5 6 5 6 5 5 4 5 5 5 5 3 5 6 6 6 6 7 9 11 10 10 5 4 4 3 3 2 3 4 5 4 4 3 3 3 3 3 2 1 1 1 2 2 3 3 4 4 5 5 5 5 5 5 6 6 6 6 6 6 7 8 8 9 9
3 2 3 4 4 4 4 3 3 3 3 2 3 3 4 3 3 2 1 3 4 3 3 5 5 4 4 3 3 5 4 6 6 6 6 7 7 7 6 6 9 12 7 8 7 4 4 3 2 3 3 5 4 3 3 4 4 3 2 2 1 1 1 1 1 2 2 3 3 4 4 4 3 4 5 4 3 3 3 4 5 6 6 7 7
3 3 3 3 3 4 4 4 3 3 2 3 3 3 3 4 2 2 1 2 4 4 2 4 4 5 5 5 3 4 4 6 6 6 5 6 7 6 6 6 3 5 10 6 5 5 4 6 5 3 4 4 4 3 3 3 3 3 2 2 1 2 2 2 2 2 2 3 4 4 4 4 4 4 4 4 5 4 3 3 1 3 4 5 5
3 3 3 3 3 4 3 3 3 3 3 1 2 3 3 3 3 4 1 2 4 4 2 1 3 4 5 5 4 5 3 5 6 6 6 5 6 6 6 6 4 4 3 6 7 6 4 4 4 4 4 5 4 4 4 3 2 5 2 2 1 3 1 1 3 3 4 4 4 5 5 4 4 4 4 5 5 5 4 3 2 1 2 2 3
4 4 4 3 3 4 4 3 3 3 3 2 1 3 3 3 2 3 3 2 4 2 4 3 2 4 5 5 4 4 4 5 5 6 6 5 4 5 4 5 6 4 6 3 5 3 0 1 2 4 3 5 3 4 4 3 1 1 3 2 2 2 2 2 1 3 4 5 5 5 6 6 6 4 4 4 6 6 6 6 4 3 3 2 2
4 4 4 3 3 4 4 3 2 2 2 3 2 2 4 3 2 2 3 3 4 3 3 4 3 3 5 6 4 4 3 4 4 5 5 6 5 5 4 6 6 6 5 4 2 4 6 0 2 1 2 2 4 3 6 4 2 3 3 2 1 2 2 1 0 2 4 5 5 5 6 7 6 5 5 6 7 7 6 7 7 5 5 5 4
2 4 4 4 4 4 4 3 2 2 1 2 1 2 3 4 3 2 2 3 3 4 3 3 3 3 5 5 4 4 3 4 3 3 4 4 4 6 7 5 7 6 5 4 4 2 6 4 2 3 3 3 5 3 1 1 2 2 3 2 2 1 1 1 0 2 3 4 5 6 5 5 4 4 7 8 9 9 8 7 7 7 6 6 6
3 1 3 4 4 4 4 3 2 2 2 1 2 1 3 3 3 3 2 2 2 2 4 3 2 3 5 5 3 4 4 4 2 3 2 3 5 6 6 5 6 7 6 4 3 5 3 5 3 5 3 4 3 2 3 2 1 1 1 1 1 1 1 1 1 2 6 9 7 4 3 4 6 8 9 9 8 9 10 9 8 7 5 4 5
3 3 2 2 3 3 4 4 3 3 3 3 3 2 1 1 3 3 2 2 2 2 3 4 3 4 4 5 4 3 4 5 2 2 2 4 3 4 5 5 6 5 4 4 4 4 6 6 4 2 1 1 1 1 4 5 3 4 4 4 3 3 4 4 3 5 5 6 5 4 5 7 9 11 11 10 10 11 11 11 11 9 6 4 3
3 2 3 2 3 3 3 3 3 3 2 3 3 4 3 2 2 2 2 1 1 2 3 3 3 3 4 4 4 4 5 7 5 4 4 5 4 5 5 5 5 4 5 4 4 5 6 7 7 4 1 3 1 1 3 5 7 4 4 3 4 5 5 6 5 4 2 2 3 4 6 8 10 13 13 13 13 12 12 12 12 12 11 7 5
4 3 2 3 1 3 3 3 3 3 3 3 3 3 3 3 3 3 2 1 1 2 2 3 3 2 3 4 5 4 5 6 7 6 6 4 5 5 6 6 5 6 6 5 5 6 6 5 3 3 3 0 2 3 1 2 3 4 7 3 3 3 5 3 4 2 3 4 3 6 7 7 10 9 12 15 14 14 13 15 14 14 14 13 9
4 4 5 5 4 3 3 4 3 3 3 3 3 2 2 4 4 3 4 3 3 2 2 2 2 2 3 4 4 4 5 5 6 5 6 6 4 5 4 5 5 6 6 5 4 5 5 5 6 5 2 2 2 2 2 4 4 2 1 4 6 2 3 4 3 4 3 3 6 6 8 9 8 10 11 11 13 14 14 12 14 14 14 14 14
1 2 2 3 4 4 3 2 1 1 3 4 3 3 3 3 3 4 4 4 4 4 2 1 1 1 1 2 3 3 3 5 6 7 6 6 6 5 3 4 5 6 5 4 6 6 4 5 4 1 4 3 4 6 5 5 7 8 3 3 3 1 1 5 1 2 2 3 3 5 7 5 5 7 6 7 7 8 10 10 8 11 13 12 13
4 2 2 3 3 3 4 4 3 3 3 3 4 8 7 5 5 4 3 3 4 4 4 3 2 2 2 2 1 2 4 6 8 8 7 8 7 7 8 6 6 6 7 6 6 6 6 6 7 6 5 6 6 6 6 2 3 3 6 5 5 2 3 4 1 1 3 4 3 6 5 5 4 5 6 6 4 5 5 6 6 7 9 11 11
4 4 3 2 1 3 4 4 4 4 4 4 7 7 8 10 6 5 5 4 3 4 4 4 5 5 3 2 1 1 2 3 4 7 9 9 8 8 10 11 10 10 7 6 6 6 7 6 4 4 6 6 5 4 4 6 3 5 5 5 6 3 3 4 1 1 3 4 2 2 5 4 3 5 3 4 3 3 4 4 7 9 9 10 10
6 4 6 3 3 2 2 3 4 4 4 7 9 9 8 8 7 6 5 5 4 4 4 5 6 5 4 4 3 1 2 3 4 4 5 7 6 6 9 10 9 8 8 8 6 4 4 5 4 6 5 7 6 6 5 5 6 5 4 5 3 5 4 4 2 2 2 3 1 2 2 4 2 3 4 2 1 1 1 5 8 9 9 9 9
3 5 5 4 4 4 1 1 3 4 4 7 9 10 10 10 10 6 4 4 6 5 5 5 5 5 4 4 6 5 3 4 3 4 4 4 4 3 4 5 5 7 8 8 8 8 7 6 7 5 7 5 6 6 7 8 6 8 4 4 3 3 4 7 3 1 2 2 2 2 1 2 2 1 3 4 2 2 2 5 8 8 9 9 8
6 5 5 5 5 4 4 3 4 3 3 5 6 9 10 11 11 7 4 4 5 5 7 7 6 6 6 7 6 6 4 4 5 4 4 4 4 3 3 4 4 2 3 6 8 8 10 8 8 8 6 6 9 7 6 8 9 8 7 5 4 6 6 5 3 3 1 2 1 2 1 2 2 2 3 5 3 4 3 4 6 7 7 7 7
6 6 6 6 5 5 5 3 3 5 4 4 6 7 7 7 8 6 4 4 4 5 5 5 5 6 7 7 7 8 7 6 6 7 6 7 5 5 4 4 4 3 2 2 1 2 4 4 6 5 6 4 4 7 8 6 6 7 7 7 7 6 7 4 4 1 2 2 2 2 1 2 1 3 3 4 4 4 3 4 6 7 6 7 7
6 6 6 5 6 6 6 5 5 5 5 7 7 6 6 6 4 4 4 5 5 6 6 5 5 6 5 6 6 6 5 6 9 12 11 6 6 6 6 5 4 2 0 2 2 4 3 4 6 7 8 8 8 9 8 7 7 7 8 8 8 7 8 5 3 1 1 2 2 2 1 1 1 0 3 4 2 4 3 3 6 6 7 8 9
7 8 6 5 5 5 6 5 5 6 6 5 5 7 7 3 3 4 4 5 5 5 7 5 7 5 4 5 4 5 5 7 9 10 9 6 4 4 6 5 4 3 3 2 5 5 1 4 9 11 11 11 11 12 11 12 11 10 9 8 6 6 7 3 0 1 1 1 1 1 2 1 1 2 3 3 3 3 3 4 4 5 7 8 9
7 6 6 6 6 6 6 7 6 6 6 8 7 5 8 7 5 4 4 5 5 5 5 5 5 6 2 6 7 5 7 8 11 11 12 11 8 8 6 6 7 6 4 0 2 4 8 11 13 13 9 9 10 12 12 12 13 10 9 8 8 6 6 6 4 3 1 1 2 2 0 1 2 0 2 4 3 2 4 4 3 5 6 7 9
3 3 5 6 6 6 7 6 9 8 7 9 13 12 7 7 6 6 5 4 5 6 5 6 4 3 5 12 12 10 8 9 10 9 11 9 7 9 8 7 7 8 8 6 6 6 5 7 7 9 8 9 6 5 5 8 8 2 4 8 7 7 7 4 4 2 1 1 3 2 1 2 0 2 1 4 2 4 2 2 3 5 5 5 5
Wind_Direction
146 141 116 115 112 110 123 129 126 98 75 50 88 93 76 70 22 23 15 16 28 53 89 93 85 101 113 111 116 124 126 127 131 136 139 141 143 156 155 149 135 131 130 131 130 127 125 122 122 122 117 113 106 100 97 97 97 95 90 90 87 83 85 84 81 78 75 75 77 76 67 62 59 60 60 56 53 48 50 44 61 58 53 53 53
144 134 133 128 126 133 142 164 133 118 97 71 60 94 123 97 24 48 37 20 50 50 79 83 78 83 106 117 122 132 136 136 130 120 120 127 145 150 150 103 115 130 132 133 130 130 129 130 130 128 124 122 118 110 105 106 105 100 97 94 95 97 96 97 94 93 92 78 73 68 64 59 62 56 56 58 63 63 51 32 59 65 61 57 55
144 150 132 139 145 155 191 172 93 45 90 93 97 116 121 95 42 60 48 40 56 55 77 87 87 91 105 112 124 127 128 117 106 108 113 125 131 131 108 88 119 126 129 121 128 130 139 140 136 133 134 130 121 115 113 115 112 111 107 103 105 105 105 98 96 93 91 96 91 84 76 71 67 61 49 46 50 55 50 41 33 45 60 62 53
148 152 144 147 162 176 163 149 142 141 119 116 111 109 120 116 72 61 60 67 70 58 67 89 90 99 110 112 122 126 121 118 117 119 125 123 115 93 80 87 113 128 121 120 119 114 116 138 136 130 134 139 130 127 130 122 129 127 125 122 117 121 113 111 106 105 101 101 104 97 90 81 71 67 61 46 43 59 56 41 33 39 40 55 57
160 156 152 153 159 157 158 171 152 144 118 115 106 89 84 64 42 49 67 66 66 63 74 75 92 107 113 114 112 112 113 113 119 123 120 113 100 91 89 89 93 111 122 129 134 133 99 105 132 140 136 137 127 135 150 153 148 145 141 147 146 136 128 122 122 116 121 113 110 103 105 99 93 88 81 64 49 45 42 43 36 25 29 56 58
144 138 140 148 153 158 159 163 132 131 110 111 100 103 98 89 61 76 69 70 69 63 86 88 80 89 93 98 94 101 111 113 130 135 126 111 105 99 92 81 80 74 69 108 138 129 121 103 116 124 133 134 139 152 170 162 164 165 150 169 182 177 161 155 147 150 141 140 122 122 117 111 122 116 104 94 67 44 26 40 37 33 28 48 56
130 141 151 147 146 142 164 162 135 135 115 114 123 117 114 112 118 96 78 71 70 64 83 95 102 95 84 77 92 98 99 115 115 105 92 92 90 87 87 89 84 73 72 64 83 92 78 64 68 89 104 105 142 146 129 129 141 160 173 186 201 209 191 190 178 177 170 159 168 159 157 142 143 144 136 138 130 137 12 19 11 38 23 12 39
132 140 147 146 141 158 174 156 149 116 118 134 130 135 140 120 113 131 114 88 93 79 72 95 89 91 79 73 69 77 85 79 82 84 87 88 83 87 87 92 98 98 89 77 76 78 80 74 75 74 69 65 64 56 34 23 33 61 1 343 276 223 214 201 209 205 200 191 194 173 170 172 168 167 169 168 184 183 197 216 117 248 187 37 359
142 152 146 146 135 138 167 156 144 121 95 117 114 123 145 137 101 73 83 125 114 110 95 96 100 87 79 77 63 69 70 77 78 82 82 82 82 87 96 102 93 93 85 85 74 71 73 77 74 74 81 73 61 50 43 13 0 358 336 263 294 319 304 301 230 215 214 216 218 223 203 180 183 184 182 192 201 211 207 211 204 231 203 217 183
149 113 99 164 141 146 158 142 132 121 116 103 110 140 143 115 119 77 72 111 124 121 115 100 97 90 74 68 68 68 66 74 74 77 97 108 97 93 93 80 89 81 84 84 83 78 74 70 73 71 72 72 73 71 65 60 52 303 293 301 298 266 267 279 322 307 266 242 234 238 246 219 200 216 202 199 208 214 215 216 217 210 218 217 215
121 96 199 152 130 133 141 139 114 123 117 125 122 134 114 99 127 102 76 73 112 110 112 104 90 84 71 63 70 72 70 65 65 63 70 118 130 122 99 84 86 76 80 76 69 68 66 65 67 67 65 70 65 58 55 47 51 64 50 43 268 343 287 245 253 252 259 296 308 302 297 251 222 230 236 229 224 224 226 225 222 219 214 221 228
134 171 192 147 139 142 133 135 121 128 123 127 156 154 143 129 128 117 106 85 63 104 113 108 87 76 71 59 53 68 68 67 57 47 41 41 83 110 102 99 88 86 81 84 80 72 75 83 79 71 62 56 54 51 47 46 36 33 53 46 42 67 187 286 192 223 228 214 269 294 291 287 266 255 258 257 247 250 252 238 228 231 221 219 226
159 163 159 141 137 140 145 134 140 135 144 179 165 160 122 122 114 89 116 114 87 80 93 99 106 78 62 62 55 43 65 65 58 47 58 43 14 25 100 102 97 82 69 77 73 75 77 81 83 76 68 59 40 42 41 39 36 38 31 59 93 106 147 124 101 113 88 95 65 62 51 43 357 263 265 263 275 274 268 255 235 232 228 227 227
163 158 143 137 140 144 146 149 142 145 153 147 152 118 118 125 121 90 36 112 126 158 125 76 40 121 127 92 62 51 56 59 52 46 50 53 73 83 42 89 69 66 55 77 76 80 76 73 76 75 66 57 47 33 29 27 24 30 34 39 44 66 58 60 62 70 73 68 65 64 59 50 41 33 31 19 326 300 290 281 262 232 227 233 230
160 154 148 154 150 148 153 147 144 145 131 135 122 124 129 136 141 129 117 40 70 56 36 62 134 96 90 89 35 67 349 33 41 43 51 61 71 79 63 82 81 90 102 67 93 94 89 85 78 68 64 63 54 45 31 25 35 35 34 40 47 59 68 70 72 75 75 72 66 59 51 46 41 35 27 20 7 349 339 301 259 242 216 225 226
154 151 147 152 156 156 150 147 153 151 151 143 133 135 133 128 118 115 127 115 97 234 12 75 147 134 91 99 166 89 44 25 67 25 24 71 58 69 50 81 90 103 131 83 87 97 94 79 76 75 71 66 59 48 37 31 32 35 31 38 38 42 69 76 76 75 75 70 66 58 51 46 42 38 29 26 25 25 11 347 350 300 222 219 226
139 140 139 151 159 156 153 156 153 156 148 144 152 160 151 146 146 143 165 146 157 195 280 49 208 114 147 114 65 54 223 157 110 27 356 39 43 68 69 72 86 108 91 96 87 77 83 75 74 70 67 67 60 48 44 37 36 36 31 34 37 38 40 67 70 71 70 69 66 63 57 52 47 41 34 29 28 32 38 37 21 16 315 228 222
149 147 143 149 159 165 154 151 159 159 165 153 141 140 143 141 165 159 165 178 155 143 206 319 188 35 179 145 160 173 161 161 86 165 344 43 51 50 56 58 69 88 98 105 102 90 81 82 72 72 66 64 54 50 42 41 44 41 43 37 40 36 33 32 64 70 68 68 64 60 56 52 48 44 40 36 35 33 31 33 35 27 19 336 237
155 157 152 156 161 165 161 162 165 170 166 142 157 171 160 163 150 160 173 153 137 162 185 199 4 309 70 13 192 156 152 141 157 131 94 1 28 40 47 52 65 95 102 104 106 98 81 80 79 78 69 60 57 56 52 43 46 49 54 46 43 41 40 37 34 48 63 61 59 56 53 51 46 43 43 42 41 39 35 32 34 34 34 30 9
151 163 160 160 160 156 151 153 155 174 169 175 173 159 148 157 159 166 153 167 174 171 188 193 180 210 57 32 70 95 95 87 118 139 116 129 91 31 54 60 67 57 80 96 98 105 101 86 90 80 76 66 67 66 62 60 55 49 47 47 48 45 35 41 42 34 40 57 57 56 54 49 46 42 42 41 40 39 37 36 32 35 33 30 34
156 159 163 161 170 166 158 157 161 175 176 179 165 159 169 167 157 158 162 173 184 180 164 192 195 195 119 65 81 67 71 70 106 92 133 132 83 115 107 63 64 44 50 67 69 69 86 94 87 89 83 75 66 68 61 61 58 50 50 47 46 42 47 47 46 43 36 51 56 56 55 52 49 45 42 42 40 37 37 37 36 34 36 34 33
66 103 138 199 175 166 171 176 183 175 177 183 169 167 173 174 175 172 162 163 176 168 186 188 193 178 148 147 126 96 76 77 69 100 69 38 145 145 125 119 96 357 25 51 57 55 75 83 87 81 81 82 70 73 67 71 69 62 52 54 55 52 55 55 50 46 42 40 58 58 55 52 50 47 44 42 40 38 36 35 34 32 32 36 36
105 70 85 79 104 146 174 184 184 174 173 176 181 177 178 177 175 167 167 166 171 176 175 182 177 183 160 158 164 167 167 163 168 163 136 121 99 99 98 78 117 104 11 35 48 43 43 34 77 87 95 89 74 71 79 71 70 73 71 60 61 63 66 59 55 49 42 34 40 56 56 55 53 50 47 44 42 41 38 36 33 31 29 29 32
85 94 84 80 88 81 128 147 165 158 183 192 180 175 162 160 167 173 180 178 163 167 172 174 188 187 176 153 160 147 117 139 162 148 138 143 136 132 121 110 64 59 107 68 46 47 30 51 39 98 114 113 120 124 106 80 86 90 74 73 67 68 71 72 66 58 50 43 36 43 56 59 58 55 51 46 44 42 40 37 34 31 30 27 27
128 127 158 162 141 120 131 141 143 176 166 158 158 143 143 154 164 172 170 172 177 169 174 189 180 180 187 169 150 131 134 148 135 126 106 122 131 124 107 107 120 115 102 91 98 7 39 47 97 91 134 167 165 159 144 116 101 95 88 72 73 63 64 71 69 57 54 50 44 36 42 52 57 57 54 52 51 48 44 38 30 27 26 26 25
154 155 177 137 94 112 122 119 132 125 139 149 139 137 139 149 164 171 178 169 153 168 173 170 166 167 151 148 152 134 154 154 144 132 135 128 131 133 124 65 104 128 98 56 76 83 292 76 136 135 196 244 214 185 164 156 130 111 110 91 71 66 58 55 55 47 54 50 46 44 43 43 47 48 50 50 51 52 49 43 36 29 28 27 25
152 165 145 112 106 94 114 124 127 131 132 123 113 108 114 113 137 151 122 148 153 146 155 156 154 158 168 175 154 137 157 162 142 141 144 145 143 149 135 121 81 89 86 22 355 106 199 244 181 182 218 234 247 224 194 193 198 170 130 88 60 59 49 45 44 52 50 50 48 48 43 43 44 41 39 41 43 40 41 44 39 32 29 29 27
153 136 148 129 123 104 93 118 126 120 125 118 116 112 115 118 118 123 122 136 140 148 163 162 165 173 174 157 135 146 162 155 130 127 123 135 133 134 136 137 140 155 119 137 305 296 165 136 226 204 197 210 232 232 224 196 209 188 135 111 89 57 47 31 36 43 31 25 26 30 30 32 35 38 36 32 32 34 35 35 33 34 30 29 29
148 148 137 127 122 118 112 119 125 129 114 110 110 106 104 111 124 125 124 132 137 155 158 159 171 166 161 170 168 144 152 129 111 117 123 118 131 141 150 153 154 137 141 162 219 178 236 180 160 233 187 184 212 221 219 212 217 190 145 131 136 106 62 50 36 29 26 8 3 357 3 10 21 27 40 31 33 38 33 20 22 33 30 27 26
132 145 129 130 114 104 110 109 124 128 141 131 119 111 100 84 92 85 132 122 112 111 144 144 158 155 147 139 134 133 147 136 139 139 135 143 144 149 137 144 148 148 159 158 214 205 191 218 192 189 181 190 187 210 209 223 224 186 155 160 170 149 169 186 24 356 339 336 325 326 326 338 4 19 25 28 24 26 29 24 16 14 25 31 24
119 119 114 104 106 97 106 110 117 128 127 134 126 118 115 100 76 85 65 117 117 118 143 142 152 140 141 147 148 143 155 138 144 144 140 142 151 140 138 148 162 142 154 136 144 238 164 188 235 226 188 191 181 190 217 222 228 198 175 191 195 164 176 217 227 262 289 291 298 303 307 316 9 19 19 13 358 352 354 10 3 4 17 25 20
124 123 117 115 111 101 82 96 99 105 115 101 114 119 92 98 113 97 76 117 110 121 113 96 128 130 134 141 163 158 163 142 148 154 154 155 149 148 154 158 145 121 124 145 152 192 212 182 212 218 188 171 169 180 228 235 216 208 177 201 213 169 167 194 226 243 262 273 276 284 300 325 359 9 9 353 347 336 341 316 308 312 328 338 358
136 129 126 126 111 105 100 103 119 122 121 104 69 101 98 88 64 89 78 96 109 97 104 81 78 117 123 135 160 175 157 153 164 157 157 153 141 133 138 144 146 140 136 128 126 123 166 215 193 203 181 137 178 195 203 213 159 179 181 201 194 166 178 194 227 281 285 285 288 295 310 328 348 349 344 344 343 343 329 310 288 243 237 269 309
145 143 139 134 114 111 110 113 113 116 117 114 100 107 114 102 79 57 95 97 98 90 97 103 83 95 123 126 142 158 167 150 150 160 162 146 154 145 158 161 164 167 165 112 134 133 186 266 246 6 158 175 195 183 191 192 165 172 183 201 179 171 184 165 301 317 299 292 304 323 330 326 322 318 336 350 351 356 346 323 309 284 240 233 242
174 151 153 143 131 119 111 116 130 133 128 120 88 107 125 135 121 69 75 105 120 115 93 88 88 101 103 118 141 133 118 119 123 132 142 164 166 175 179 170 173 175 178 150 124 137 163 217 188 178 198 188 194 220 184 132 175 161 176 204 206 178 132 138 7 320 338 355 6 354 336 317 326 5 14 9 3 1 6 351 332 309 283 237 227
142 115 135 139 124 123 124 113 129 158 138 129 109 110 154 142 126 123 96 95 90 110 121 115 105 100 121 111 130 120 111 110 107 116 119 149 176 187 176 180 171 175 174 166 152 135 160 164 234 195 201 177 229 57 106 59 74 47 179 117 91 100 82 94 107 57 40 55 52 49 41 35 34 32 29 21 15 15 15 11 358 338 304 277 251
138 128 105 99 119 131 151 156 152 176 187 156 150 141 154 153 144 138 134 121 130 130 136 141 143 136 135 137 152 121 119 118 112 125 142 141 150 152 169 169 169 166 148 150 141 121 139 174 202 247 178 159 82 146 149 120 80 59 44 57 71 95 77 61 86 67 62 54 65 60 34 33 33 33 33 34 32 31 31 28 23 14 356 324 272
136 136 142 150 162 183 188 173 173 191 169 170 174 181 173 158 143 133 138 142 149 144 143 145 152 164 140 140 149 150 145 143 163 170 163 153 145 147 148 154 151 148 143 136 137 142 162 178 167 190 246 162 93 73 203 145 133 97 64 45 48 36 58 72 48 50 27 32 26 15 19 20 23 33 35 43 43 38 35 34 34 34 29 13 341
150 159 159 175 216 192 206 171 183 190 180 166 180 182 164 161 159 154 157 159 165 162 176 181 182 188 162 149 155 159 150 153 157 171 165 159 156 164 163 156 153 145 151 156 146 151 170 170 183 164 147 28 140 145 83 102 98 132 138 96 54 356 42 74 75 26 13 4 49 42 35 33 38 40 39 42 39 37 38 37 36 35 36 33 22
175 180 181 194 206 197 215 202 206 198 172 168 175 169 165 159 157 172 174 174 181 201 207 227 214 209 193 176 162 169 157 169 163 175 162 163 156 148 165 142 148 146 155 151 145 153 163 178 182 182 166 151 63 54 98 109 92 42 66 130 140 127 69 45 56 51 346 21 22 14 18 22 26 34 37 40 38 36 37 37 34 35 34 34 32
132 202 190 181 182 209 229 220 224 213 194 201 189 172 155 141 146 164 177 175 175 190 210 235 287 265 258 224 192 171 175 174 179 171 184 167 153 156 182 151 149 146 141 153 162 158 163 169 183 98 137 123 150 136 147 166 180 177 184 125 118 183 174 121 82 31 15 27 25 42 30 11 26 36 32 39 29 29 32 33 25 27 33 32 32
44 7 138 141 169 200 219 212 185 211 229 228 216 194 173 167 166 167 164 172 178 177 183 196 243 258 256 275 284 225 206 177 177 180 179 187 189 174 170 168 161 150 157 155 163 169 161 171 193 170 174 193 182 176 166 198 145 111 113 124 123 179 64 82 64 354 14 49 53 47 22 13 33 45 40 41 13 28 28 30 31 35 30 30 28
57 63 48 43 149 197 205 215 214 211 223 231 226 214 212 182 167 170 171 185 171 175 182 191 211 230 256 275 303 269 191 195 192 188 187 190 192 189 180 179 175 165 159 162 177 170 171 188 170 164 185 193 206 174 155 149 147 149 148 128 121 109 131 137 151 309 26 40 60 79 17 355 30 49 39 35 0 20 26 28 24 30 28 24 22
2 21 52 41 13 337 214 190 204 231 238 234 230 222 222 231 215 184 175 174 184 184 189 196 208 206 219 237 252 237 211 214 200 205 214 212 212 195 183 182 185 186 175 164 163 173 175 168 168 198 170 193 180 162 159 140 138 100 115 124 133 141 129 104 120 135 295 49 84 92 15 342 359 45 32 12 331 316 20 15 21 25 24 18 17
25 21 9 17 22 350 355 198 230 227 235 257 252 237 224 220 231 233 191 188 184 200 195 197 197 201 201 213 235 244 234 215 210 206 205 212 206 172 164 178 191 195 203 200 177 177 172 171 187 194 195 173 162 197 178 157 141 128 135 105 125 114 122 119 157 179 287 8 71 72 74 308 5 4 6 321 319 318 331 357 3 10 14 9 4
27 13 7 6 357 7 349 334 315 291 261 268 258 262 251 230 218 211 239 204 213 209 205 199 198 198 197 201 211 230 235 214 202 199 201 200 188 171 174 181 180 179 206 208 211 184 175 181 179 197 208 177 176 168 168 146 140 151 150 151 146 119 121 140 166 155 280 333 195 131 45 301 338 7 344 306 312 318 322 321 334 342 350 354 350
19 9 0 359 352 345 345 342 342 326 303 297 253 232 244 270 271 227 231 222 229 244 245 230 213 209 208 206 205 213 211 210 207 196 189 193 188 192 189 196 192 187 158 132 134 179 196 185 189 196 168 153 139 152 153 164 148 157 154 155 158 140 123 100 68 30 358 34 86 95 215 262 314 7 300 293 313 312 298 302 306 311 326 337 335
16 12 7 14 6 351 339 341 348 340 328 334 306 276 233 206 172 195 231 229 224 234 240 235 225 223 214 208 211 221 217 223 221 204 201 179 179 182 196 209 215 222 197 29 330 266 260 168 139 132 163 163 165 154 153 140 121 121 99 90 94 107 118 112 137 323 76 308 51 102 138 270 260 316 281 292 329 322 310 302 291 312 329 328 326
15 14 8 355 345 352 351 353 353 332 327 342 336 318 305 275 162 193 195 209 226 234 240 233 232 225 202 208 206 220 225 232 232 210 211 173 164 186 204 207 214 215 235 349 11 35 73 144 117 125 129 136 136 131 136 139 138 127 118 117 136 137 118 111 175 65 198 298 305 129 140 235 255 206 287 283 315 300 302 288 289 304 320 319 316
15 0 352 360 3 5 360 353 346 334 322 321 328 303 290 280 256 251 212 198 217 217 235 235 230 230 238 258 227 225 227 233 234 209 199 190 178 193 207 201 208 219 232 117 70 43 61 70 75 74 79 100 112 119 132 138 139 147 144 148 170 125 122 135 166 200 248 307 261 145 83 225 295 245 254 299 336 274 262 265 277 308 321 315 310
16 359 9 14 6 10 7 352 347 351 332 330 335 338 324 276 269 266 256 230 238 240 230 244 239 215 207 242 233 219 222 238 243 223 217 204 201 203 208 208 217 220 210 158 156 130 106 91 80 94 76 74 75 91 105 141 158 163 108 130 136 123 136 156 142 103 45 268 264 168 25 290 20 295 117 344 343 283 280 274 301 301 304 301 302